Location: Narrabri
(30.3170°S, 149.7830°E)
Time: 01:03:52
(UTC+11:00)

Envisat - Visible Passes

Search period start: 22 October 2017 00:00
Search period end: 01 November 2017 00:00
Orbit: 764 x 766 km, 98.2° (Epoch: 21 October)

Date Brightness Start Highest point End Pass type
(mag) Time Alt. Az. Time Alt. Az. Time Alt. Az.
22 Oct 3.4 21:35:22 10° S 21:39:26 56° S 21:39:26 56° S visible
23 Oct 3.8 20:59:00 10° SSE 21:02:26 33° ESE 21:02:26 33° ESE visible
23 Oct 5.3 22:38:58 10° SSW 22:42:27 19° WSW 22:42:39 19° WSW visible
24 Oct 4.7 20:23:49 10° ESE 20:25:26 14° ESE 20:25:26 14° ESE visible
24 Oct 4.0 22:01:11 10° S 22:05:39 43° WSW 22:05:39 43° WSW visible
25 Oct 3.1 21:24:17 10° SSE 21:28:38 62° SE 21:28:38 62° SE visible
26 Oct 4.0 20:48:10 10° SE 20:51:39 28° ESE 20:51:39 28° ESE visible
26 Oct 5.0 22:27:24 10° SSW 22:31:26 24° WSW 22:31:51 24° WSW visible
27 Oct 4.9 20:13:51 10° ESE 20:14:39 11° E 20:14:39 11° E visible
27 Oct 3.5 21:49:57 10° S 21:54:51 57° WSW 21:54:51 57° WSW visible
28 Oct 3.1 21:13:15 10° SSE 21:17:52 55° ESE 21:17:52 55° ESE visible
28 Oct 5.7 22:54:30 10° SW 22:56:46 13° WSW 22:58:04 12° W visible
29 Oct 4.2 20:37:28 10° SE 20:40:51 23° E 20:40:51 23° E visible
29 Oct 4.6 22:15:59 10° S 22:20:26 31° WSW 22:21:04 30° W visible
30 Oct 3.0 21:38:46 10° S 21:43:54 75° WSW 21:44:04 74° W visible
31 Oct 3.3 21:02:18 10° SSE 21:07:03 43° E 21:07:03 43° E visible
31 Oct 5.4 22:42:35 10° SSW 22:45:47 17° WSW 22:47:16 15° W visible
